Observations for Trim Patrick St
| Time | AQI | Temp °C | Hum % | Pres Pa | CO μg/m³ | H₂S μg/m³ | NO μg/m³ | NO₂ μg/m³ | O₃ μg/m³ | SO₂ μg/m³ | PM1 μg/m³ | PM2.5 μg/m³ | PM10 μg/m³ |
|---|---|---|---|---|---|---|---|---|---|---|---|---|---|
| Friday 28 August 2026 | |||||||||||||
| 02:03 | 3 | 16.7 | 88 | 38,460 | 0.15 | 0.61 | 1.48 | 11.96 | 40.08 | 0 | 11.43 | 16.33 | 17.97 |
| 02:02 | 3 | 16.7 | 88 | 38,460 | 0.14 | 1.1 | 1.42 | 12.48 | 36.77 | 0 | 12.29 | 16.33 | 17.97 |
| 02:01 | 3 | 16.7 | 88 | 38,460 | 0.15 | 0.84 | 1.51 | 12.27 | 38.37 | 0 | 12.29 | 17.02 | 18.72 |
| 02:00 | 3 | 16.7 | 88 | 38,460 | 0.14 | 0.82 | 1.66 | 12.38 | 36.74 | 0 | 11.43 | 17.02 | 18.72 |
| 01:59 | 3 | 16.7 | 88 | 38,460 | 0.16 | 0.82 | 1.59 | 12.06 | 36.93 | 0 | 13.14 | 17.02 | 18.72 |
| 01:58 | 3 | 16.7 | 88 | 38,460 | 0.15 | 0.63 | 1.52 | 12.48 | 37.06 | 0 | 12.29 | 16.33 | 17.97 |
| 01:57 | 3 | 16.7 | 88 | 38,460 | 0.15 | 0.69 | 1.52 | 12.06 | 39.77 | 0 | 11.43 | 17.7 | 19.47 |
| 01:56 | 3 | 16.7 | 88 | 38,460 | 0.14 | 1.08 | 1.26 | 12.27 | 38.51 | 0 | 14 | 19.07 | 20.97 |
| 01:55 | 3 | 16.7 | 88 | 38,460 | 0.15 | 0.74 | 1.14 | 12.25 | 37.66 | 0 | 12.29 | 19.08 | 20.99 |
| 01:54 | 3 | 16.8 | 88 | 38,460 | 0.15 | 1.29 | 1.07 | 11.43 | 41.13 | 0 | 11.43 | 17.71 | 19.48 |
| 01:53 | 3 | 16.7 | 88 | 38,460 | 0.14 | 1.76 | 1.05 | 13.7 | 35.75 | 0 | 11.43 | 17.03 | 18.73 |
| 01:52 | 3 | 16.7 | 88 | 38,460 | 0.15 | 1.65 | 1.04 | 13.95 | 32.51 | 0 | 13.14 | 19.08 | 20.99 |
| 01:51 | 3 | 16.7 | 88 | 38,460 | 0.15 | 2.31 | 1.39 | 13.7 | 35.89 | 0 | 14 | 18.39 | 20.23 |
| 01:50 | 3 | 16.8 | 88 | 38,460 | 0.15 | 2.49 | 1.43 | 14.97 | 30.94 | 0 | 12.29 | 17.03 | 18.73 |
| 01:49 | 3 | 16.8 | 88 | 38,460 | 0.14 | 1.65 | 1.42 | 12.15 | 37.57 | 0 | 14 | 19.77 | 21.75 |
| 01:48 | 3 | 16.8 | 88 | 38,460 | 0.14 | 3.01 | 1.5 | 15.29 | 30.01 | 0 | 11.43 | 18.41 | 20.25 |
| 01:47 | 3 | 16.8 | 88 | 38,460 | 0.15 | 2.62 | 1.55 | 13.46 | 34.23 | 0 | 8.86 | 15.67 | 17.24 |
| 01:46 | 3 | 16.8 | 88 | 38,460 | 0.15 | 2.59 | 1.53 | 15.11 | 31.11 | 0 | 14 | 18.41 | 20.25 |
| 01:45 | 3 | 16.8 | 88 | 38,460 | 0.14 | 1.57 | 1.33 | 12.8 | 37.32 | 0 | 10.57 | 14.99 | 16.48 |
| 01:44 | 3 | 16.8 | 88 | 38,460 | 0.15 | 1.97 | 1.38 | 13.93 | 31.57 | 0 | 9.71 | 15.68 | 17.25 |